Flag for Brazil Weather past 2 weeks in Rio Grande, Rio Grande do Sul, Brazil

Now
61 °F

Clear.


Feels Like: 61 °F
Forecast: N/A
Wind: 5 mph from Southeast

Location: Pelotas Airport

Current Time: Sep 1, 2014 at 7:05:50 PM

Latest Report: Sep 1, 2014 at 6:00 PM


Visibility: 10 mi

Pressure: 29.95 "Hg

Humidity: 88%

Dew point: 57 °F

Location of Rio GrandeLocation

Historic Weather in Rio Grande — Graph

°F

Rio Grande temperature yesterday

Maximum temperature yesterday: 75 °F (at 12:00 PM)
Minimum temperature yesterday: 63 °F (at 9:00 AM)
Average temperature yesterday: 67 °F

Past Weeks' High & Low Weather Summary

 TemperatureHumidityPressure
High88 °F (Aug 24, 12:00 PM)100% (Aug 17, 9:00 PM)30.24 "Hg (Aug 17, 9:00 PM)
Low37 °F (Aug 25, 9:00 AM)1% (Aug 30, 4:00 AM)29.59 "Hg (Aug 24, 9:00 PM)
Average59 °F83%30.03 "Hg
* Reported Aug 17 9:00 PM — Sep 1 5:00 PM, Rio Grande, Weather by CustomWeather, © 2014

Note: Actual official high and low records may vary slightly from our data, if they occured in-between our weather recording intervals... More about our weather records

Advertising

Rio Grande weather history for previous 24 hours

 ConditionsComfort  
Time TempWeatherWind HumidityBarometerVisibility
5:00 PM
Sep 1
64 °FPassing clouds.7 mph78%29.95 "HgN/A
4:00 PM68 °FScattered clouds.7 mph69%29.95 "HgN/A
3:00 PM68 °FScattered clouds.2 mph69%29.95 "HgN/A
2:00 PM64 °FPartly sunny.8 mph73%29.98 "HgN/A
1:00 PM64 °FPartly sunny.9 mph73%29.98 "HgN/A
12:00 PM59 °FOvercast.6 mph82%29.98 "HgN/A
11:00 AM59 °FOvercast.8 mph82%29.98 "HgN/A
10:00 AM55 °FLow clouds.6 mph94%29.98 "HgN/A
9:00 AM54 °FLow clouds.12 mph94%29.98 "HgN/A
8:00 AM54 °FPartly sunny.6 mph94%29.95 "HgN/A
7:00 AM54 °FPassing clouds.7 mph88%29.92 "HgN/A
6:00 AM55 °FSunny.7 mph88%29.89 "Hg10 mi
5:00 AM55 °FClear.3 mph94%29.86 "Hg10 mi
4:00 AM55 °FFog.2 mph100%29.86 "Hg1 mi
3:00 AM57 °FClear.6 mph94%29.89 "Hg10 mi
2:00 AM57 °FClear.5 mph88%29.89 "Hg10 mi
1:00 AM59 °FClear.6 mph94%29.89 "Hg10 mi
12:00 AM61 °FClear.3 mph94%29.89 "Hg10 mi
11:00 PM
Aug 31
63 °FClear.2 mph94%29.89 "Hg10 mi
10:00 PM64 °FClear.5 mph94%29.89 "Hg10 mi
9:00 PM64 °FClear.7 mph94%29.89 "Hg10 mi
Weather by CustomWeather, © 2014

See weather overviewHow to use our weather pages